Voltar ao catálogo

STARLINK-2252

AtivoComunicaçõesVLEO
NORAD 48595·PAYLOAD·🇺🇸 United States

Lançado May 15, 2021 de Cape Canaveral Space Force Station

Loading…

Próximas Passagens (próximas 24 horas)

TLE

AtualizadoSource: CelesTrak SupGP

Época: Sep 14, 2026, 21:19 UTC

1 48595C 21041AU  26257.88868056 -.00033616  00000+0 -10810-2 0  2579
2 48595  53.1594 348.4138 0001290  74.6273 221.1994 15.31718318    19

Acompanhe STARLINK-2252 em tempo real com AllMySat

Download on the App Store